TimeMDT,TemperatureF,Dew PointF,Humidity,Sea Level PressureIn,VisibilityMPH,Wind Direction,Wind SpeedMPH,Gust SpeedMPH,PrecipitationIn,Events,Conditions,WindDirDegrees,DateUTC
12:53 AM,37.0,23.0,57,30.03,10.0,NE,6.9,-,N/A,,Clear,50,2013-03-30 06:53:00
1:53 AM,36.0,23.0,59,30.02,10.0,SE,3.5,-,N/A,,Clear,140,2013-03-30 07:53:00
2:53 AM,33.1,21.9,64,30.03,10.0,ENE,8.1,-,N/A,,Clear,70,2013-03-30 08:53:00
3:53 AM,30.9,21.0,67,30.06,10.0,NE,4.6,-,N/A,,Clear,50,2013-03-30 09:53:00
4:53 AM,32.0,21.9,66,30.04,10.0,ENE,9.2,-,N/A,,Clear,70,2013-03-30 10:53:00
5:53 AM,30.0,21.0,69,30.06,10.0,Calm,Calm,-,N/A,,Clear,0,2013-03-30 11:53:00
6:53 AM,33.1,21.9,64,30.06,10.0,ENE,5.8,-,N/A,,Clear,60,2013-03-30 12:53:00
7:53 AM,39.0,25.0,57,30.09,10.0,NNE,3.5,-,N/A,,Clear,30,2013-03-30 13:53:00
8:53 AM,46.0,25.0,44,30.07,10.0,SE,3.5,-,N/A,,Clear,140,2013-03-30 14:53:00
9:53 AM,55.0,24.1,30,30.03,10.0,South,3.5,-,N/A,,Clear,170,2013-03-30 15:53:00
10:53 AM,63.0,21.0,20,30.00,10.0,SE,9.2,-,N/A,,Clear,140,2013-03-30 16:53:00
11:53 AM,66.0,19.9,17,29.96,10.0,East,5.8,-,N/A,,Clear,100,2013-03-30 17:53:00
12:53 PM,68.0,17.1,14,29.93,10.0,Variable,6.9,16.1,N/A,,Scattered Clouds,0,2013-03-30 18:53:00
1:53 PM,72.0,7.0,8,29.89,10.0,West,17.3,25.3,N/A,,Scattered Clouds,280,2013-03-30 19:53:00
2:53 PM,69.1,10.9,11,29.89,10.0,WSW,8.1,18.4,N/A,,Clear,250,2013-03-30 20:53:00
3:53 PM,68.0,10.9,11,29.87,10.0,Variable,4.6,-,N/A,,Partly Cloudy,0,2013-03-30 21:53:00
4:53 PM,66.0,14.0,13,29.87,10.0,Variable,4.6,26.5,N/A,,Mostly Cloudy,0,2013-03-30 22:53:00
5:53 PM,66.0,15.1,14,29.87,10.0,South,9.2,-,N/A,,Scattered Clouds,190,2013-03-30 23:53:00
6:53 PM,62.1,16.0,17,29.87,10.0,SSW,13.8,-,N/A,,Partly Cloudy,200,2013-03-31 00:53:00
7:53 PM,60.1,18.0,20,29.88,10.0,NNE,8.1,-,N/A,,Overcast,30,2013-03-31 01:53:00
8:53 PM,60.1,21.9,23,29.91,10.0,NNW,16.1,31.1,N/A,,Overcast,340,2013-03-31 02:53:00
9:53 PM,57.0,26.1,30,29.93,10.0,North,11.5,-,0.00,,Mostly Cloudy,360,2013-03-31 03:53:00
10:53 PM,48.9,34.0,56,30.00,10.0,NNE,25.3,32.2,0.00,Rain,Light Rain,20,2013-03-31 04:53:00
11:53 PM,46.0,34.0,63,30.01,10.0,NNE,21.9,32.2,0.00,,Overcast,20,2013-03-31 05:53:00